Terminal Aerodrome Forecast
Issued by NWS Nashville, TN

Home | Current Version | Previous Version | Text Only | Print | Product List | Glossary On
Versions: 1 2 3 4 5 6 7 8 9 10 11 12 13 14 15 16 17 18 19 20 21 22 23 24 25 26 27 28 29 30 31 32 33 34 35 36
267
FTUS44 KOHX 232320
TAFBNA
TAF
KBNA 232320Z 2400/2424 01011KT 6SM -RA BR SCT008 OVC012
      TEMPO 2400/2404 3SM RA BR OVC008
     FM240400 36008KT 6SM -SHRA BKN007 OVC012
     FM241700 01006KT P6SM OVC015=

USA.gov is the U.S. government's official web portal to all federal, state and local government web resources and services.